sat.trackr.live / text

‹ back to catalog

UNKNOWN

NORAD 87163

UNKNOWN UNKNOWN UNKNOWN

§ Identity

Operator
Country
Launch date
Launch site
Launch vehicle
Mass (kg)
RCS (m²)

External: N2YO · Heavens-Above

§ Orbital elements

Epoch: 2026-05-22T12:33:49.476384Z

Period
105.50 min
Inclination
65.5967°
Eccentricity
0.0650619
Mean motion
13.64891022 rev/d
Perigee alt
536.8 km
Apogee alt
1,499.2 km
Semi-major
7,396.1 km
B*
3.4619e-4
RAAN
199.3430°
Arg perigee
353.0356°
Mean anomaly
6.1973°
Rev number
59,945

§ Raw data

UNKNOWN1 87163U          26142.52348931  .00001132  00000+0  34619-3 0  99972 87163  65.5967 199.3430 0650619 353.0356   6.1973 13.64891022599450

JSON: /api/v1/satellites/87163 · /tle

For live sub-satellite position, see the globe view (requires WebGL).

§ Visibility from observer

Set your observer location to see the next 7 days of passes ≥ 10°. The values pass through the URL so the page stays shareable.

No JS? Fill the form by hand. The geolocation button needs JavaScript.